| time (UTC) | temp F | wind direction | speed knots | gust knots | rain 1hr in | rain 24hr in | rain mn in | humidity % | barometer mb |
| 20260906132811 | 0 | 0.0 | 0.0 | 0.00 | 0.04 | 0.04 | 1020.1 | ||
| 20260906132216 | 0 | 0.0 | 0.0 | 0.00 | 0.04 | 0.04 | 1020.1 | ||
| 20260906131713 | 0 | 0.0 | 0.0 | 0.00 | 0.04 | 0.04 | 1020.1 | ||
| 20260906130114 | 0 | 0.0 | 0.0 | 0.00 | 0.04 | 0.04 | 1020.1 | ||
| 20260906125613 | 0 | 0.0 | 0.0 | 0.01 | 0.04 | 0.04 | 1020.0 | ||
| 20260906125106 | 0 | 0.0 | 0.0 | 0.01 | 0.04 | 0.04 | 1019.9 | ||
| 20260906124606 | 0 | 0.0 | 0.0 | 0.01 | 0.04 | 0.04 | 1020.0 | ||
| 20260906124106 | 0 | 195 | 0.0 | 0.0 | 0.01 | 0.04 | 0.04 | 1019.9 | |
| 20260906123608 | 0 | 195 | 0.0 | 7.0 | 0.01 | 0.04 | 0.04 | 1019.9 | |
| 20260906123044 | 67 | 195 | 0.0 | 7.0 | 0.02 | 0.04 | 0.04 | 59 | 1019.8 |
| 20260906122530 | 67 | 196 | 1.7 | 7.0 | 0.02 | 0.04 | 0.04 | 59 | 1019.8 |
| 20260906120523 | 67 | 153 | 3.5 | 7.0 | 0.04 | 0.04 | 0.04 | 58 | 1019.9 |
| 20260906120024 | 66 | 164 | 3.5 | 7.8 | 0.04 | 0.04 | 0.04 | 59 | 1019.7 |
| 20260906115017 | 67 | 212 | 3.5 | 10.4 | 0.03 | 0.03 | 0.03 | 58 | 1019.8 |
| 20260906114511 | 67 | 161 | 3.5 | 8.7 | 0.03 | 0.03 | 0.03 | 57 | 1019.8 |
| 20260906114006 | 67 | 267 | 2.6 | 7.8 | 0.03 | 0.03 | 0.03 | 56 | 1019.8 |
| 20260906113459 | 67 | 205 | 2.6 | 7.8 | 0.03 | 0.03 | 0.03 | 57 | 1019.8 |
| 20260906112954 | 67 | 131 | 1.7 | 7.8 | 0.02 | 0.02 | 0.02 | 59 | 1019.8 |
| 20260906111435 | 71 | 180 | 2.6 | 5.2 | 0.00 | 0.00 | 0.01 | 49 | 1019.9 |
| 20260906110929 | 71 | 189 | 0.9 | 5.2 | 0.00 | 0.00 | 0.00 | 44 | 1019.7 |
| 20260906110423 | 73 | 184 | 0.9 | 1.7 | 0.00 | 0.00 | 0.00 | 45 | 1019.4 |
| 20260906105917 | 73 | 195 | 0.9 | 2.6 | 0.00 | 0.00 | 0.00 | 39 | 1019.2 |
| 20260906105411 | 73 | 186 | 1.7 | 3.5 | 0.00 | 0.00 | 0.00 | 39 | 1019.2 |
| 20260906104904 | 73 | 192 | 1.7 | 3.5 | 0.00 | 0.00 | 0.00 | 40 | 1019.3 |
| 20260906104359 | 73 | 188 | 1.7 | 2.6 | 0.00 | 0.00 | 0.00 | 41 | 1019.3 |
| 20260906103853 | 73 | 148 | 1.7 | 3.5 | 0.00 | 0.00 | 0.00 | 39 | 1019.2 |
| 20260906102841 | 73 | 156 | 1.7 | 2.6 | 0.00 | 0.00 | 0.00 | 38 | 1019.2 |
| 20260906101835 | 74 | 165 | 0.9 | 2.6 | 0.00 | 0.00 | 0.00 | 37 | 1019.1 |
| 20260906101332 | 74 | 171 | 1.7 | 4.3 | 0.00 | 0.00 | 0.00 | 37 | 1019.2 |
| 20260906100832 | 75 | 210 | 1.7 | 4.3 | 0.00 | 0.00 | 0.00 | 36 | 1019.1 |
| 20260906100334 | 75 | 191 | 2.6 | 7.0 | 0.00 | 0.00 | 0.00 | 33 | 1019.0 |
| 20260906095831 | 75 | 141 | 2.6 | 7.0 | 0.00 | 0.00 | 0.00 | 33 | 1018.9 |
| 20260906095330 | 75 | 141 | 2.6 | 5.2 | 0.00 | 0.00 | 0.00 | 33 | 1019.0 |
| 20260906094832 | 75 | 159 | 3.5 | 6.1 | 0.00 | 0.00 | 0.00 | 33 | 1019.0 |
| 20260906094330 | 75 | 195 | 3.5 | 7.0 | 0.00 | 0.00 | 0.00 | 32 | 1018.9 |
| 20260906093830 | 75 | 160 | 3.5 | 7.0 | 0.00 | 0.00 | 0.00 | 33 | 1018.9 |
| 20260906093331 | 75 | 193 | 2.6 | 7.8 | 0.00 | 0.00 | 0.00 | 33 | 1018.8 |
| 20260906091830 | 75 | 192 | 3.5 | 7.0 | 0.00 | 0.00 | 0.00 | 33 | 1018.9 |
| 20260906091333 | 75 | 183 | 3.5 | 7.0 | 0.00 | 0.00 | 0.00 | 33 | 1018.9 |
| 20260906090831 | 75 | 157 | 2.6 | 6.1 | 0.00 | 0.00 | 0.00 | 33 | 1018.9 |
| 20260906090331 | 75 | 183 | 3.5 | 6.1 | 0.00 | 0.00 | 0.00 | 33 | 1019.0 |
| 20260906085832 | 75 | 186 | 2.6 | 5.2 | 0.00 | 0.00 | 0.00 | 33 | 1019.0 |
| 20260906085325 | 75 | 166 | 2.6 | 9.6 | 0.00 | 0.00 | 0.00 | 33 | 1019.0 |
| 20260906084819 | 75 | 113 | 2.6 | 9.6 | 0.00 | 0.00 | 0.00 | 33 | 1019.0 |
| 20260906083810 | 75 | 191 | 3.5 | 7.0 | 0.00 | 0.00 | 0.00 | 33 | 1019.1 |
| 20260906083301 | 75 | 195 | 2.6 | 4.3 | 0.00 | 0.00 | 0.00 | 33 | 1019.1 |
| 20260906082755 | 75 | 169 | 2.6 | 6.1 | 0.00 | 0.00 | 0.00 | 33 | 1019.2 |
| 20260906082249 | 75 | 164 | 2.6 | 6.1 | 0.00 | 0.00 | 0.00 | 33 | 1019.3 |
| 20260906081743 | 75 | 155 | 2.6 | 6.1 | 0.00 | 0.00 | 0.00 | 33 | 1019.3 |
| 20260906081238 | 75 | 189 | 2.6 | 6.1 | 0.00 | 0.00 | 0.00 | 33 | 1019.2 |
| 20260906080731 | 75 | 200 | 3.5 | 6.1 | 0.00 | 0.00 | 0.00 | 33 | 1019.3 |
| 20260906075718 | 75 | 139 | 3.5 | 7.0 | 0.00 | 0.00 | 0.00 | 32 | 1019.2 |
| 20260906075213 | 75 | 144 | 2.6 | 7.0 | 0.00 | 0.00 | 0.00 | 32 | 1019.2 |
| 20260906074707 | 75 | 179 | 3.5 | 6.1 | 0.00 | 0.00 | 0.00 | 32 | 1019.3 |
| 20260906074201 | 75 | 211 | 3.5 | 6.1 | 0.00 | 0.00 | 0.00 | 32 | 1019.3 |
| 20260906073655 | 75 | 158 | 2.6 | 6.1 | 0.00 | 0.00 | 0.00 | 32 | 1019.4 |
| 20260906073149 | 75 | 207 | 3.5 | 6.1 | 0.00 | 0.00 | 0.00 | 32 | 1019.6 |
| 20260906072644 | 75 | 169 | 3.5 | 5.2 | 0.00 | 0.00 | 0.00 | 32 | 1019.6 |
| 20260906072137 | 75 | 214 | 3.5 | 6.1 | 0.00 | 0.00 | 0.00 | 32 | 1019.7 |
| 20260906071634 | 75 | 182 | 3.5 | 6.1 | 0.00 | 0.00 | 0.00 | 32 | 1019.7 |
| 20260906071135 | 75 | 210 | 2.6 | 5.2 | 0.00 | 0.00 | 0.00 | 32 | 1019.7 |
| 20260906070634 | 75 | 179 | 2.6 | 5.2 | 0.00 | 0.00 | 0.00 | 32 | 1019.7 |
| 20260906065634 | 75 | 219 | 1.7 | 4.3 | 0.00 | 0.00 | 0.00 | 32 | 1019.6 |
| 20260906065136 | 75 | 162 | 2.6 | 5.2 | 0.00 | 0.00 | 0.00 | 32 | 1019.6 |
| 20260906064636 | 75 | 184 | 2.6 | 5.2 | 0.00 | 0.00 | 0.00 | 32 | 1019.6 |
| 20260906064134 | 75 | 153 | 1.7 | 5.2 | 0.00 | 0.00 | 0.00 | 32 | 1019.6 |
| 20260906063634 | 75 | 198 | 0.9 | 3.5 | 0.00 | 0.00 | 0.00 | 32 | 1019.6 |
| 20260906063132 | 75 | 194 | 0.0 | 1.7 | 0.00 | 0.00 | 0.00 | 32 | 1019.6 |
| 20260906062634 | 75 | 181 | 0.9 | 3.5 | 0.00 | 0.00 | 0.00 | 32 | 1019.6 |
| 20260906062131 | 75 | 179 | 1.7 | 4.3 | 0.00 | 0.00 | 0.00 | 32 | 1019.6 |
| 20260906061630 | 75 | 217 | 2.6 | 7.0 | 0.00 | 0.00 | 0.00 | 31 | 1019.4 |
| 20260906061130 | 75 | 207 | 2.6 | 7.0 | 0.00 | 0.00 | 0.00 | 31 | 1019.3 |
| 20260906060629 | 75 | 195 | 2.6 | 7.0 | 0.00 | 0.00 | 0.00 | 31 | 1019.4 |
| 20260906055627 | 75 | 165 | 2.6 | 5.2 | 0.00 | 0.00 | 0.00 | 31 | 1019.4 |
| 20260906055129 | 75 | 189 | 2.6 | 5.2 | 0.00 | 0.00 | 0.00 | 32 | 1019.6 |
| 20260906054623 | 74 | 186 | 0.9 | 5.2 | 0.00 | 0.00 | 0.00 | 33 | 1019.6 |
| 20260906054117 | 73 | 165 | 0.9 | 2.6 | 0.00 | 0.00 | 0.00 | 33 | 1019.4 |
| 20260906053611 | 72 | 141 | 0.9 | 1.7 | 0.00 | 0.00 | 0.00 | 34 | 1019.6 |
| 20260906053105 | 73 | 187 | 0.9 | 1.7 | 0.00 | 0.00 | 0.00 | 32 | 1019.4 |
| 20260906052559 | 73 | 187 | 0.0 | 1.7 | 0.00 | 0.00 | 0.00 | 32 | 1019.6 |
| 20260906052057 | 74 | 176 | 0.0 | 1.7 | 0.00 | 0.00 | 0.00 | 31 | 1019.4 |
| 20260906051055 | 75 | 189 | 1.7 | 2.6 | 0.00 | 0.00 | 0.00 | 30 | 1019.4 |
| 20260906050555 | 74 | 177 | 1.7 | 3.5 | 0.00 | 0.00 | 0.00 | 31 | 1019.4 |
| 20260906050052 | 74 | 200 | 1.7 | 3.5 | 0.00 | 0.00 | 0.00 | 30 | 1019.3 |
| 20260906045050 | 75 | 192 | 0.9 | 2.6 | 0.00 | 0.00 | 0.00 | 29 | 1019.6 |
| 20260906044551 | 76 | 158 | 1.7 | 4.3 | 0.00 | 0.00 | 0.00 | 29 | 1019.6 |
| 20260906044050 | 76 | 214 | 1.7 | 4.3 | 0.00 | 0.00 | 0.00 | 29 | 1019.7 |
| 20260906043549 | 76 | 208 | 2.6 | 6.1 | 0.00 | 0.00 | 0.00 | 28 | 1019.7 |
| 20260906043048 | 76 | 168 | 3.5 | 7.0 | 0.00 | 0.00 | 0.00 | 28 | 1019.7 |
| 20260906042547 | 76 | 149 | 3.5 | 7.0 | 0.00 | 0.00 | 0.00 | 28 | 1019.7 |
| 20260906042049 | 76 | 180 | 2.6 | 7.0 | 0.00 | 0.00 | 0.00 | 28 | 1019.6 |
| 20260906041546 | 77 | 175 | 2.6 | 7.0 | 0.00 | 0.00 | 0.00 | 27 | 1019.6 |
| 20260906041050 | 77 | 191 | 2.6 | 8.7 | 0.00 | 0.00 | 0.00 | 27 | 1019.6 |
| 20260906040546 | 77 | 158 | 3.5 | 8.7 | 0.00 | 0.00 | 0.00 | 27 | 1019.6 |
| 20260906040047 | 77 | 169 | 3.5 | 7.0 | 0.00 | 0.00 | 0.00 | 27 | 1019.6 |
| 20260906035547 | 77 | 150 | 2.6 | 7.0 | 0.00 | 0.00 | 0.00 | 26 | 1019.4 |
| 20260906035045 | 77 | 131 | 1.7 | 5.2 | 0.00 | 0.00 | 0.00 | 26 | 1019.4 |
| 20260906034047 | 77 | 103 | 2.6 | 6.1 | 0.00 | 0.00 | 0.00 | 26 | 1019.4 |
| 20260906033543 | 78 | 172 | 2.6 | 6.1 | 0.00 | 0.00 | 0.00 | 26 | 1019.3 |
| 20260906033045 | 78 | 166 | 2.6 | 7.0 | 0.00 | 0.00 | 0.00 | 26 | 1019.3 |
| 20260906032544 | 78 | 138 | 2.6 | 7.0 | 0.00 | 0.00 | 0.00 | 25 | 1019.3 |
| 20260906032041 | 78 | 122 | 1.7 | 5.2 | 0.00 | 0.00 | 0.00 | 25 | 1019.3 |
| 20260906031542 | 78 | 152 | 1.7 | 5.2 | 0.00 | 0.00 | 0.00 | 25 | 1019.2 |
| 20260906031042 | 78 | 185 | 2.6 | 6.1 | 0.00 | 0.00 | 0.00 | 25 | 1019.2 |
| 20260906030544 | 78 | 202 | 2.6 | 7.0 | 0.00 | 0.00 | 0.00 | 25 | 1019.2 |
| 20260906030042 | 78 | 159 | 2.6 | 7.0 | 0.00 | 0.00 | 0.00 | 25 | 1019.1 |
| 20260906025542 | 78 | 207 | 2.6 | 7.0 | 0.00 | 0.00 | 0.00 | 25 | 1019.0 |
| 20260906025042 | 78 | 104 | 2.6 | 7.0 | 0.00 | 0.00 | 0.00 | 25 | 1019.0 |
| 20260906024543 | 78 | 186 | 2.6 | 7.0 | 0.00 | 0.00 | 0.00 | 25 | 1018.9 |
| 20260906023543 | 78 | 162 | 0.9 | 3.5 | 0.00 | 0.00 | 0.00 | 25 | 1018.9 |
| 20260906022541 | 78 | 219 | 0.9 | 5.2 | 0.00 | 0.00 | 0.00 | 24 | 1018.8 |
| 20260906022042 | 79 | 161 | 0.9 | 5.2 | 0.00 | 0.00 | 0.00 | 24 | 1018.8 |
| 20260906021535 | 79 | 164 | 1.7 | 5.2 | 0.00 | 0.00 | 0.00 | 24 | 1018.8 |
| 20260906021030 | 79 | 232 | 1.7 | 7.8 | 0.00 | 0.00 | 0.00 | 23 | 1018.6 |
| 20260906020529 | 80 | 214 | 2.6 | 8.7 | 0.00 | 0.00 | 0.00 | 23 | 1018.6 |
| 20260906015526 | 80 | 134 | 3.5 | 9.6 | 0.00 | 0.00 | 0.00 | 23 | 1018.8 |
| 20260906014524 | 80 | 96 | 1.7 | 7.0 | 0.00 | 0.00 | 0.00 | 22 | 1018.6 |
| 20260906014027 | 81 | 197 | 2.6 | 7.0 | 0.00 | 0.00 | 0.00 | 22 | 1018.6 |
| 20260906013524 | 81 | 195 | 1.7 | 7.0 | 0.00 | 0.00 | 0.00 | 21 | 1018.6 |
| 20260906013024 | 82 | 98 | 0.9 | 6.1 | 0.00 | 0.00 | 0.00 | 21 | 1018.6 |
| 20260906012021 | 83 | 155 | 3.5 | 10.4 | 0.00 | 0.00 | 0.00 | 19 | 1018.8 |
| 20260906011020 | 84 | 203 | 3.5 | 9.6 | 0.00 | 0.00 | 0.00 | 19 | 1018.8 |
| 20260906010519 | 84 | 146 | 5.2 | 13.9 | 0.00 | 0.00 | 0.00 | 19 | 1018.8 |
| 20260906005021 | 86 | 187 | 3.5 | 8.7 | 0.00 | 0.00 | 0.00 | 17 | 1018.8 |
| 20260906004520 | 87 | 81 | 2.6 | 7.8 | 0.00 | 0.00 | 0.00 | 17 | 1018.6 |
| 20260906004013 | 86 | 163 | 3.5 | 11.3 | 0.00 | 0.00 | 0.00 | 18 | 1018.6 |
| 20260906003508 | 87 | 208 | 2.6 | 11.3 | 0.00 | 0.00 | 0.00 | 17 | 1018.8 |
| 20260906003002 | 87 | 134 | 2.6 | 8.7 | 0.00 | 0.00 | 0.00 | 17 | 1018.6 |
| 20260906002456 | 87 | 255 | 3.5 | 8.7 | 0.00 | 0.00 | 0.00 | 17 | 1018.6 |
| 20260906001950 | 87 | 260 | 4.3 | 10.4 | 0.00 | 0.00 | 0.00 | 17 | 1018.9 |
| 20260906001444 | 86 | 166 | 4.3 | 11.3 | 0.00 | 0.00 | 0.00 | 17 | 1018.8 |
| 20260905235420 | 88 | 225 | 4.3 | 11.3 | 0.00 | 0.00 | 0.00 | 17 | 1018.5 |
| 20260905234914 | 87 | 103 | 4.3 | 11.3 | 0.00 | 0.00 | 0.00 | 16 | 1018.4 |
| 20260905233903 | 87 | 115 | 2.6 | 9.6 | 0.00 | 0.00 | 0.00 | 17 | 1018.9 |
| 20260905233357 | 87 | 274 | 2.6 | 9.6 | 0.00 | 0.00 | 0.00 | 17 | 1018.9 |
| 20260905232850 | 86 | 91 | 2.6 | 8.7 | 0.00 | 0.00 | 0.00 | 17 | 1018.8 |
| 20260905232344 | 85 | 258 | 3.5 | 10.4 | 0.00 | 0.00 | 0.00 | 18 | 1018.8 |
| 20260905231838 | 85 | 179 | 3.5 | 10.4 | 0.00 | 0.00 | 0.00 | 17 | 1018.9 |
| 20260905231332 | 86 | 268 | 3.5 | 11.3 | 0.00 | 0.00 | 0.00 | 17 | 1018.8 |
| 20260905230826 | 86 | 292 | 3.5 | 11.3 | 0.00 | 0.00 | 0.00 | 17 | 1018.6 |
| 20260905230319 | 86 | 215 | 3.5 | 9.6 | 0.00 | 0.00 | 0.00 | 17 | 1018.6 |
| 20260905225814 | 87 | 142 | 2.6 | 8.7 | 0.00 | 0.00 | 0.00 | 16 | 1018.6 |
| 20260905225308 | 87 | 226 | 3.5 | 11.3 | 0.00 | 0.00 | 0.00 | 17 | 1018.5 |
| 20260905224803 | 86 | 310 | 5.2 | 12.2 | 0.00 | 0.00 | 0.00 | 18 | 1018.5 |
| 20260905224256 | 86 | 283 | 6.1 | 12.2 | 0.00 | 0.00 | 0.00 | 16 | 1018.6 |
| 20260905223750 | 87 | 264 | 5.2 | 12.2 | 0.00 | 0.00 | 0.00 | 16 | 1018.8 |
| 20260905223244 | 89 | 250 | 3.5 | 9.6 | 0.00 | 0.00 | 0.00 | 15 | 1018.8 |
| 20260905222232 | 88 | 281 | 3.5 | 9.6 | 0.00 | 0.00 | 0.00 | 15 | 1019.0 |
| 20260905221726 | 88 | 238 | 5.2 | 13.9 | 0.00 | 0.00 | 0.00 | 16 | 1018.9 |
| 20260905221221 | 87 | 304 | 7.0 | 14.8 | 0.00 | 0.00 | 0.00 | 15 | 1018.6 |
| 20260905220714 | 88 | 295 | 6.1 | 16.5 | 0.00 | 0.00 | 0.00 | 15 | 1018.6 |
| 20260905220208 | 88 | 239 | 4.3 | 16.5 | 0.00 | 0.00 | 0.00 | 15 | 1018.8 |
| 20260905215156 | 88 | 238 | 5.2 | 15.6 | 0.00 | 0.00 | 0.00 | 15 | 1018.9 |
| 20260905214651 | 87 | 319 | 6.1 | 12.2 | 0.00 | 0.00 | 0.00 | 15 | 1018.6 |
| 20260905214144 | 87 | 223 | 6.1 | 13.0 | 0.00 | 0.00 | 0.00 | 15 | 1019.2 |
| 20260905213638 | 88 | 229 | 4.3 | 13.9 | 0.00 | 0.00 | 0.00 | 14 | 1019.3 |
| 20260905213132 | 88 | 290 | 3.5 | 13.9 | 0.00 | 0.00 | 0.00 | 15 | 1019.3 |
| 20260905212626 | 88 | 278 | 5.2 | 13.9 | 0.00 | 0.00 | 0.00 | 15 | 1019.3 |
| 20260905212121 | 87 | 250 | 7.0 | 18.2 | 0.00 | 0.00 | 0.00 | 15 | 1019.3 |
| 20260905211614 | 88 | 190 | 5.2 | 18.2 | 0.00 | 0.00 | 0.00 | 15 | 1019.1 |
| 20260905211108 | 88 | 225 | 4.3 | 12.2 | 0.00 | 0.00 | 0.00 | 14 | 1019.2 |
| 20260905210602 | 89 | 248 | 3.5 | 11.3 | 0.00 | 0.00 | 0.00 | 14 | 1019.1 |
| 20260905205550 | 88 | 255 | 4.3 | 12.2 | 0.00 | 0.00 | 0.00 | 15 | 1019.3 |
| 20260905204538 | 87 | 257 | 5.2 | 15.6 | 0.00 | 0.00 | 0.00 | 15 | 1019.4 |
| 20260905204032 | 87 | 193 | 4.3 | 14.8 | 0.00 | 0.00 | 0.00 | 15 | 1019.6 |
| 20260905203526 | 87 | 321 | 4.3 | 11.3 | 0.00 | 0.00 | 0.00 | 15 | 1019.4 |
| 20260905203020 | 85 | 240 | 5.2 | 13.9 | 0.00 | 0.00 | 0.00 | 17 | 1019.7 |
| 20260905202515 | 86 | 157 | 6.1 | 15.6 | 0.00 | 0.00 | 0.00 | 16 | 1019.8 |
| 20260905202008 | 87 | 88 | 4.3 | 15.6 | 0.00 | 0.00 | 0.00 | 15 | 1019.7 |
| 20260905201503 | 88 | 253 | 4.3 | 13.9 | 0.00 | 0.00 | 0.00 | 15 | 1019.6 |
| 20260905200956 | 87 | 111 | 5.2 | 12.2 | 0.00 | 0.00 | 0.00 | 15 | 1019.7 |
| 20260905195944 | 86 | 214 | 5.2 | 13.9 | 0.00 | 0.00 | 0.00 | 16 | 1019.8 |
| 20260905195438 | 85 | 103 | 5.2 | 13.9 | 0.00 | 0.00 | 0.00 | 17 | 1020.0 |
| 20260905194933 | 86 | 203 | 3.5 | 11.3 | 0.00 | 0.00 | 0.00 | 16 | 1020.0 |
| 20260905194426 | 86 | 87 | 2.6 | 10.4 | 0.00 | 0.00 | 0.00 | 16 | 1019.9 |
| 20260905193414 | 86 | 217 | 2.6 | 9.6 | 0.00 | 0.00 | 0.00 | 16 | 1020.0 |
| 20260905192908 | 87 | 229 | 3.5 | 15.6 | 0.00 | 0.00 | 0.00 | 16 | 1020.0 |
| 20260905192402 | 87 | 177 | 4.3 | 15.6 | 0.00 | 0.00 | 0.00 | 16 | 1020.0 |
| 20260905191856 | 88 | 234 | 4.3 | 15.6 | 0.00 | 0.00 | 0.00 | 15 | 1020.2 |
| 20260905191351 | 87 | 270 | 4.3 | 12.2 | 0.00 | 0.00 | 0.00 | 15 | 1020.0 |
| 20260905190844 | 87 | 232 | 4.3 | 12.2 | 0.00 | 0.00 | 0.00 | 15 | 1020.0 |
| 20260905190338 | 87 | 188 | 4.3 | 13.9 | 0.00 | 0.00 | 0.00 | 15 | 1020.2 |
| 20260905185832 | 87 | 143 | 3.5 | 13.9 | 0.00 | 0.00 | 0.00 | 15 | 1020.2 |
| 20260905185326 | 86 | 234 | 4.3 | 14.8 | 0.00 | 0.00 | 0.00 | 16 | 1020.3 |
| 20260905184820 | 86 | 124 | 5.2 | 14.8 | 0.00 | 0.00 | 0.00 | 16 | 1020.3 |
| 20260905184314 | 86 | 211 | 4.3 | 11.3 | 0.00 | 0.00 | 0.00 | 15 | 1020.2 |
| 20260905183808 | 85 | 231 | 4.3 | 11.3 | 0.00 | 0.00 | 0.00 | 15 | 1020.3 |
| 20260905183309 | 85 | 181 | 4.3 | 14.8 | 0.00 | 0.00 | 0.00 | 15 | 1020.5 |
| 20260905181809 | 85 | 72 | 4.3 | 15.6 | 0.00 | 0.00 | 0.00 | 15 | 1020.5 |
| 20260905181311 | 85 | 86 | 3.5 | 15.6 | 0.00 | 0.00 | 0.00 | 15 | 1020.6 |
| 20260905180809 | 85 | 334 | 2.6 | 8.7 | 0.00 | 0.00 | 0.00 | 15 | 1020.5 |
| 20260905180310 | 85 | 156 | 2.6 | 9.6 | 0.00 | 0.00 | 0.00 | 15 | 1020.5 |
| 20260905175812 | 84 | 56 | 3.5 | 10.4 | 0.00 | 0.00 | 0.00 | 15 | 1020.6 |
| 20260905175312 | 84 | 108 | 4.3 | 14.8 | 0.00 | 0.00 | 0.00 | 15 | 1020.6 |
| 20260905174806 | 83 | 167 | 5.2 | 14.8 | 0.00 | 0.00 | 0.00 | 17 | 1020.5 |
| 20260905174303 | 83 | 124 | 5.2 | 12.2 | 0.00 | 0.00 | 0.00 | 16 | 1020.5 |
| 20260905173803 | 83 | 93 | 5.2 | 11.3 | 0.00 | 0.00 | 0.00 | 16 | 1020.5 |
| 20260905173304 | 83 | 173 | 5.2 | 12.2 | 0.00 | 0.00 | 0.00 | 16 | 1020.6 |
| 20260905172804 | 83 | 158 | 5.2 | 12.2 | 0.00 | 0.00 | 0.00 | 16 | 1020.6 |
| 20260905172307 | 83 | 158 | 5.2 | 12.2 | 0.00 | 0.00 | 0.00 | 16 | 1020.5 |
| 20260905171805 | 83 | 165 | 5.2 | 12.2 | 0.00 | 0.00 | 0.00 | 16 | 1020.3 |
| 20260905171306 | 83 | 196 | 4.3 | 10.4 | 0.00 | 0.00 | 0.00 | 16 | 1020.5 |
| 20260905170805 | 83 | 169 | 4.3 | 10.4 | 0.00 | 0.00 | 0.00 | 15 | 1020.3 |
| 20260905170306 | 82 | 198 | 4.3 | 9.6 | 0.00 | 0.00 | 0.00 | 15 | 1020.3 |
| 20260905165803 | 82 | 98 | 4.3 | 9.6 | 0.00 | 0.00 | 0.00 | 16 | 1020.3 |
| 20260905165306 | 81 | 93 | 5.2 | 11.3 | 0.00 | 0.00 | 0.00 | 15 | 1020.2 |
| 20260905164803 | 81 | 179 | 5.2 | 13.9 | 0.00 | 0.00 | 0.00 | 15 | 1020.2 |
| 20260905164302 | 81 | 157 | 4.3 | 13.9 | 0.00 | 0.00 | 0.00 | 15 | 1020.2 |
| 20260905163804 | 81 | 114 | 4.3 | 15.6 | 0.00 | 0.00 | 0.00 | 15 | 1020.2 |
| 20260905163302 | 80 | 179 | 4.3 | 15.6 | 0.00 | 0.00 | 0.00 | 14 | 1020.2 |
| 20260905162804 | 81 | 82 | 2.6 | 9.6 | 0.00 | 0.00 | 0.00 | 15 | 1020.1 |
| 20260905162306 | 81 | 125 | 2.6 | 9.6 | 0.00 | 0.00 | 0.00 | 14 | 1020.1 |
| 20260905161804 | 80 | 284 | 3.5 | 10.4 | 0.00 | 0.00 | 0.00 | 16 | 1020.0 |
| 20260905161302 | 80 | 124 | 3.5 | 10.4 | 0.00 | 0.00 | 0.00 | 16 | 1019.9 |
| 20260905160803 | 80 | 30 | 3.5 | 10.4 | 0.00 | 0.00 | 0.00 | 17 | 1020.0 |
| 20260905155801 | 80 | 140 | 3.5 | 8.7 | 0.00 | 0.00 | 0.00 | 18 | 1020.0 |
| 20260905155300 | 79 | 162 | 3.5 | 11.3 | 0.00 | 0.00 | 0.00 | 19 | 1019.9 |
| 20260905154258 | 78 | 137 | 4.3 | 13.0 | 0.00 | 0.00 | 0.00 | 20 | 1019.9 |
| 20260905153756 | 78 | 206 | 4.3 | 13.0 | 0.00 | 0.00 | 0.00 | 20 | 1019.9 |
| 20260905153300 | 78 | 163 | 3.5 | 9.6 | 0.00 | 0.00 | 0.00 | 19 | 1019.9 |
| 20260905152800 | 78 | 122 | 4.3 | 9.6 | 0.00 | 0.00 | 0.00 | 18 | 1019.9 |
| 20260905151242 | 77 | 167 | 4.3 | 13.0 | 0.00 | 0.00 | 0.00 | 17 | 1019.9 |
| 20260905150736 | 77 | 203 | 5.2 | 11.3 | 0.00 | 0.00 | 0.00 | 17 | 1020.0 |
| 20260905145724 | 76 | 179 | 5.2 | 12.2 | 0.00 | 0.00 | 0.00 | 16 | 1019.9 |
| 20260905144713 | 76 | 142 | 3.5 | 8.7 | 0.00 | 0.00 | 0.00 | 18 | 1019.9 |
| 20260905144212 | 76 | 138 | 4.3 | 10.4 | 0.00 | 0.00 | 0.00 | 18 | 1019.8 |
| 20260905143712 | 75 | 256 | 5.2 | 10.4 | 0.00 | 0.00 | 0.00 | 18 | 1019.7 |
| 20260905143214 | 75 | 180 | 4.3 | 10.4 | 0.00 | 0.00 | 0.00 | 17 | 1019.7 |
| 20260905142713 | 75 | 147 | 4.3 | 11.3 | 0.00 | 0.00 | 0.00 | 16 | 1019.6 |
| 20260905142213 | 75 | 204 | 4.3 | 11.3 | 0.00 | 0.00 | 0.00 | 15 | 1019.7 |
| 20260905141713 | 74 | 150 | 4.3 | 11.3 | 0.00 | 0.00 | 0.00 | 15 | 1019.6 |
| 20260905141212 | 74 | 184 | 4.3 | 12.2 | 0.00 | 0.00 | 0.00 | 15 | 1019.6 |
| 20260905140712 | 74 | 199 | 5.2 | 13.9 | 0.00 | 0.00 | 0.00 | 14 | 1019.4 |
| 20260905140214 | 73 | 160 | 5.2 | 13.9 | 0.00 | 0.00 | 0.00 | 13 | 1019.4 |
| 20260905135713 | 73 | 203 | 3.5 | 12.2 | 0.00 | 0.00 | 0.00 | 13 | 1019.4 |
| 20260905135212 | 72 | 179 | 2.6 | 12.2 | 0.00 | 0.00 | 0.00 | 14 | 1019.4 |
| 20260905134719 | 0 | 0.0 | 0.0 | 0.00 | 0.00 | 0.00 | 1019.4 | ||
| 20260905134215 | 0 | 0.0 | 0.0 | 0.00 | 0.00 | 0.00 | 1019.2 | ||
| 20260905133708 | 0 | 0.0 | 0.0 | 0.00 | 0.00 | 0.00 | 1019.1 |